Weather Roundup
Issued by NWS Corpus Christi, TX

Home | Current Version | Previous Version | Text Only | Print | Product List | Glossary On
Versions: 1 2 3 4 5 6 7 8 9 10 11 12 13 14 15 16 17 18 19 20 21 22 23 24 25 26 27 28 29 30 31 32 33 34 35 36 37 38 39 40 41 42 43 44 45 46 47 48 49 50
000
ASUS44 KCRP 231410
HRRCRP

SOUTH TEXAS REGIONAL WEATHER ROUNDUP
NATIONAL WEATHER SERVICE CORPUS CHRISTI TX
800 AM CST SUN NOV 23 2014


TXZ229>244-231500-
...CORPUS CHRISTI AREA OBSERVATIONS...

CITY           SKY/WX    TMP DP  RH WIND       PRES   REMARKS
CORPUS CHRISTI FOG       59  58  96 SW8       29.74S VSB 1/8
NAS CORPUS CHR CLOUDY    59  59 100 SW14      29.73S FOG
ROCKPORT       SUNNY     60  59  96 SW8       29.73R
ALICE          SUNNY     57  56  96 SW7       29.74S
FALFURRIAS     CLOUDY    59  58  96 SW6       29.76S VSB<1/4
$$

...VICTORIA AREA OBSERVATIONS...

CITY           SKY/WX    TMP DP  RH WIND       PRES   REMARKS
VICTORIA       SUNNY     60  54  80 SW8       29.71R
BEEVILLE       FAIR      57  56  99 SW7       29.72S
PLEASANTON     SUNNY     50  49  97 CALM      29.73S
SAN ANTONIO    CLEAR     55  51  86 W8        29.71S
$$

...LAREDO AREA OBSERVATIONS...

CITY           SKY/WX    TMP DP  RH WIND       PRES   REMARKS
LAREDO         SUNNY     55  52  90 SE5       29.79R
COTULLA        CLEAR     53  50  89 CALM      29.74R
DEL RIO        CLEAR     48  46  93 E3        29.72R
MCALLEN        FOG       58  58 100 SW3       29.79S VSB 1
HEBBRONVILLE   SUNNY     59  54  85 SW7       29.77R
$$

...OTHER TEXAS OBSERVATIONS...

CITY           SKY/WX    TMP DP  RH WIND       PRES   REMARKS
BROWNSVILLE    FOG       63  62  97 SW3       29.79R VSB<1/4
HOUSTON        MOSUNNY   63  60  90 VRB3      29.66R
COL. STATION   CLOUDY    59  57  93 W10       29.67R
AUSTIN         SUNNY     57  55  93 SW8       29.66F
WACO           CLEAR     54  53  97 S9        29.62F
FORT WORTH     PTCLDY    56  53  90 S9        29.56F
WICHITA FALLS  PTCLDY    51  49  92 S13       29.46F
LUBBOCK        PTCLDY    51  22  31 W20G25    29.58R
EL PASO        PTCLDY    48  22  35 E5        29.90R
$$

...MARINE OBSERVATIONS...

STATION/POSITION TIME  SKY/WX   TEMP    WIND        PRES    VSBY  WAVE   SWELL
                                AIR SEA DIR/SP/G                  HT/PER HT/PER
                 (UTC)          (F)     (DEG/KT/KT) (MB)    (MI)  (FT/S) (FT/S)
PORT ARANSAS     1400            60 61  230/ 10/ 11 1007.2R
BUOY 90 E PORT A 1400            71 73  230/ 17/ 19 1006.5S         6/ 8
BUOY 45 SE BAFFI 1400            70 74  240/ 14/ 16 1007.2F         5/ 7   5/ 7
BUOY 200 E PT IS 1400            67 74   60/  6/ 10 1010.0R         6/ 7   5/ 7
BUOY 15 E GALVES 1400            63 61  230/ 17/ 21 1004.0R         5/ 8
$$


USA.gov is the U.S. government's official web portal to all federal, state and local government web resources and services.